Location: *
(50.9167°S, 179.4000°W)
Time: 20:59:41
(UTC+00:00)

CZ-2C R/B - Pass Details

Date: 18 June 2024
Orbit: 665 x 779 km, 98.4° (Epoch: 18 July)

Event Time Altitude Azimuth Distance (km) Brightness Sun altitude
Rises 05:32:48 0° 176° (S) 3,306 5.5 -14.1°
Reaches altitude 10° 05:35:54 10° 195° (SSW) 2,374 5.0 -14.5°
Maximum altitude 05:39:09 17° 233° (SW) 1,929 5.0 -15.0°
Drops below altitude 10° 05:42:22 10° 272° (W) 2,353 6.2 -15.5°
Sets 05:45:26 0° 291° (WNW) 3,262 7.6 -15.9°
